Faribault, MN

1:28 PM CDT on April 22, 2018 (GMT -0500)
Faribault Municipal

Weather History for KFBL - April, 2013

Change the Weather History Date:

Sunday, April 28, 2013

  Actual Average Record
Temperature  
Mean Temperature 63 °F -  
Max Temperature 78 °F 64 °F 89 °F (2004)
Min Temperature 48 °F 38 °F 26 °F (1979)
Degree Days  
Heating Degree Days 2    
Growing Degree Days 13 (Base 50)    
Moisture  
Dew Point 49 °F    
Average Humidity 67    
Maximum Humidity 93    
Minimum Humidity 34    
Precipitation  
Precipitation 0.00 in - - ()
Sea Level Pressure  
Sea Level Pressure 29.81 in    
Wind  
Wind Speed 10 mph (South)    
Max Wind Speed 22 mph    
Max Gust Speed 29 mph    
Visibility 10 miles    
Events      
Averages and records for this station are not official NWS values.
T = Trace of Precipitation, MM = Missing Value Source: NWS Daily Summary

Daily Weather History Graph

Daily Weather History Graph

Search for Another Location

Airport or City:

Astronomy

Apr. 28, 2013 Rise Set
Actual Time 6:08 AM CDT 8:13 PM CDT
Civil Twilight 5:36 AM CDT 8:45 PM CDT
Nautical Twilight 4:57 AM CDT 9:24 PM CDT
Astronomical Twilight 4:15 AM CDT 10:07 PM CDT
Moon 11:48 PM CDT (4/28) 8:21 AM CDT (4/28)
Length of Visible Light 15h 09m
Length of Day
14h 05m
Waning Gibbous, 88% of the Moon is Illuminated
Apr 28
Waning Gibbous
May 2
Last Quarter
May 9
New
May 17
First Quarter
May 24
Full

Hourly Weather History & Observations

Time (CDT) Temp. Dew Point Humidity Pressure Visibility Wind Dir Wind Speed Gust Speed Precip Events Conditions
12:01 AM 55.4 °F 46.4 °F 72% 29.93 in 10.0 mi South 11.5 mph - N/A   Clear
12:21 AM 55.4 °F 46.4 °F 72% 29.93 in 10.0 mi South 10.4 mph - N/A   Clear
12:41 AM 55.4 °F 46.4 °F 72% 29.93 in 10.0 mi South 11.5 mph 18.4 mph N/A   Clear
1:01 AM 53.6 °F 46.4 °F 77% 29.93 in 10.0 mi South 11.5 mph - N/A   Clear
1:21 AM 53.6 °F 46.4 °F 77% 29.92 in 10.0 mi South 9.2 mph - N/A   Clear
1:41 AM 53.6 °F 46.4 °F 77% 29.92 in 10.0 mi South 10.4 mph - N/A   Clear
2:01 AM 51.8 °F 46.4 °F 82% 29.92 in 10.0 mi South 9.2 mph - N/A   Clear
2:21 AM 51.8 °F 46.4 °F 82% 29.91 in 10.0 mi South 5.8 mph - N/A   Clear
2:41 AM 50.0 °F 46.4 °F 87% 29.91 in 10.0 mi South 5.8 mph - N/A   Clear
3:01 AM 50.0 °F 46.4 °F 87% 29.91 in 10.0 mi South 5.8 mph - N/A   Clear
3:21 AM 48.2 °F 46.4 °F 93% 29.90 in 10.0 mi South 4.6 mph - N/A   Clear
3:41 AM 48.2 °F 44.6 °F 87% 29.90 in 10.0 mi South 5.8 mph - N/A   Clear
4:01 AM 48.2 °F 44.6 °F 87% 29.91 in 10.0 mi South 5.8 mph - N/A   Clear
4:21 AM 48.2 °F 44.6 °F 87% 29.90 in 10.0 mi South 8.1 mph - N/A   Clear
4:41 AM 48.2 °F 44.6 °F 87% 29.90 in 10.0 mi South 6.9 mph - N/A   Clear
5:01 AM 48.2 °F 44.6 °F 87% 29.90 in 10.0 mi South 6.9 mph - N/A   Clear
5:21 AM 48.2 °F 44.6 °F 87% 29.90 in 10.0 mi South 8.1 mph - N/A   Clear
5:41 AM 48.2 °F 44.6 °F 87% 29.89 in 10.0 mi SSE 8.1 mph - N/A   Clear
6:01 AM 48.2 °F 44.6 °F 87% 29.89 in 10.0 mi South 6.9 mph - N/A   Clear
6:21 AM 48.2 °F 44.6 °F 87% 29.89 in 10.0 mi South 5.8 mph - N/A   Clear
6:41 AM 48.2 °F 44.6 °F 87% 29.88 in 10.0 mi SSE 6.9 mph - N/A   Clear
7:01 AM 48.2 °F 44.6 °F 87% 29.87 in 10.0 mi South 10.4 mph - N/A   Clear
7:21 AM 50.0 °F 46.4 °F 87% 29.87 in 10.0 mi South 9.2 mph - N/A   Clear
8:01 AM 51.8 °F 46.4 °F 82% 29.86 in 10.0 mi South 10.4 mph - N/A   Clear
8:21 AM 53.6 °F 48.2 °F 82% 29.86 in 10.0 mi South 12.7 mph - N/A   Clear
8:41 AM 55.4 °F 48.2 °F 77% 29.86 in 10.0 mi South 9.2 mph - N/A   Clear
9:01 AM 57.2 °F 50.0 °F 77% 29.85 in 10.0 mi South 12.7 mph - N/A   Clear
9:21 AM 60.8 °F 50.0 °F 68% 29.84 in 10.0 mi South 8.1 mph - N/A   Clear
9:41 AM 60.8 °F 50.0 °F 68% 29.83 in 10.0 mi South 9.2 mph - N/A   Clear
10:01 AM 62.6 °F 50.0 °F 63% 29.82 in 10.0 mi SSE 16.1 mph 21.9 mph N/A   Clear
10:21 AM 64.4 °F 50.0 °F 59% 29.82 in 10.0 mi South 12.7 mph 20.7 mph N/A   Clear
10:41 AM 64.4 °F 50.0 °F 59% 29.82 in 10.0 mi South 10.4 mph 21.9 mph N/A   Clear
11:01 AM 64.4 °F 48.2 °F 56% 29.81 in 10.0 mi South 13.8 mph 24.2 mph N/A   Clear
11:21 AM 66.2 °F 48.2 °F 52% 29.81 in 10.0 mi South 13.8 mph 25.3 mph N/A   Clear
11:41 AM 68.0 °F 48.2 °F 49% 29.80 in 10.0 mi South 16.1 mph 25.3 mph N/A   Clear
12:01 PM 69.8 °F 48.2 °F 46% 29.79 in 10.0 mi SSE 18.4 mph 25.3 mph N/A   Clear
12:21 PM 71.6 °F 48.2 °F 43% 29.79 in 10.0 mi South 20.7 mph 28.8 mph N/A   Clear
12:41 PM 71.6 °F 48.2 °F 43% 29.78 in 10.0 mi South 10.4 mph 19.6 mph N/A   Clear
1:01 PM 71.6 °F 48.2 °F 43% 29.77 in 10.0 mi South 12.7 mph 24.2 mph N/A   Clear
1:21 PM 71.6 °F 50.0 °F 46% 29.77 in 10.0 mi South 18.4 mph 24.2 mph N/A   Clear
1:41 PM 71.6 °F 50.0 °F 46% 29.76 in 10.0 mi SSE 17.3 mph 23.0 mph N/A   Clear
2:01 PM 73.4 °F 50.0 °F 44% 29.75 in 10.0 mi South 16.1 mph 25.3 mph N/A   Clear
2:21 PM 73.4 °F 50.0 °F 44% 29.75 in 10.0 mi South 13.8 mph 17.3 mph N/A   Clear
2:41 PM 73.4 °F 50.0 °F 44% 29.74 in 10.0 mi SSW 12.7 mph 19.6 mph N/A   Clear
3:01 PM 75.2 °F 50.0 °F 41% 29.73 in 10.0 mi SSW 17.3 mph 25.3 mph N/A   Clear
3:21 PM 75.2 °F 50.0 °F 41% 29.73 in 10.0 mi SSW 15.0 mph 21.9 mph N/A   Clear
3:41 PM 75.2 °F 51.8 °F 44% 29.72 in 10.0 mi SSW 13.8 mph 19.6 mph N/A   Clear
4:01 PM 75.2 °F 50.0 °F 41% 29.72 in 10.0 mi South 12.7 mph 20.7 mph N/A   Clear
4:21 PM 78.8 °F 50.0 °F 36% 29.71 in 10.0 mi South 12.7 mph 21.9 mph N/A   Clear
4:49 PM 78.8 °F 50.0 °F 36% 29.70 in 10.0 mi South 11.5 mph 18.4 mph N/A   Clear
5:04 PM 78.8 °F 50.0 °F 36% 29.69 in 10.0 mi South 12.7 mph 20.7 mph N/A   Clear
5:21 PM 78.8 °F 48.2 °F 34% 29.68 in 10.0 mi South 10.4 mph 16.1 mph N/A   Clear
5:51 PM 78.8 °F 48.2 °F 34% 29.67 in 10.0 mi South 12.7 mph 19.6 mph N/A   Clear
6:06 PM 77.0 °F 48.2 °F 36% 29.66 in 10.0 mi South 8.1 mph 19.6 mph N/A   Clear
6:35 PM 75.2 °F 48.2 °F 38% 29.67 in 10.0 mi SSW 4.6 mph - N/A   Mostly Cloudy
6:55 PM 71.6 °F 51.8 °F 50% 29.72 in 10.0 mi West 21.9 mph 28.8 mph N/A   Overcast
7:10 PM 64.4 °F 53.6 °F 68% 29.73 in 7.0 mi WSW 8.1 mph - N/A   Overcast
7:25 PM 62.6 °F 55.4 °F 77% 29.71 in 7.0 mi NW 1.2 mph - N/A   Overcast
7:54 PM 60.8 °F 57.2 °F 88% 29.69 in 10.0 mi SE 5.8 mph - N/A   Mostly Cloudy
8:09 PM 60.8 °F 57.2 °F 88% 29.69 in 10.0 mi SE 4.6 mph - N/A   Scattered Clouds
8:35 PM 62.6 °F 55.4 °F 77% 29.71 in 10.0 mi SSW 5.8 mph - N/A   Mostly Cloudy
8:47 PM 62.6 °F 55.4 °F 77% 29.74 in 7.0 mi SW 11.5 mph - N/A   Overcast
9:02 PM 64.4 °F 53.6 °F 68% 29.74 in 10.0 mi SW 10.4 mph 27.6 mph N/A   Overcast
9:25 PM 62.6 °F 53.6 °F 72% 29.75 in 10.0 mi SW 9.2 mph 16.1 mph N/A   Overcast
9:41 PM 60.8 °F 55.4 °F 82% 29.76 in 10.0 mi WSW 5.8 mph - N/A   Scattered Clouds
10:01 PM 60.8 °F 53.6 °F 77% 29.75 in 10.0 mi WNW 4.6 mph - N/A   Clear
10:21 PM 60.8 °F 53.6 °F 77% 29.77 in 10.0 mi NNW 6.9 mph - N/A   Clear
10:41 PM 60.8 °F 51.8 °F 72% 29.78 in 10.0 mi NNW 12.7 mph 18.4 mph N/A   Scattered Clouds
11:01 PM 59.0 °F 51.8 °F 77% 29.77 in 10.0 mi North 8.1 mph - N/A   Scattered Clouds
11:21 PM 59.0 °F 51.8 °F 77% 29.77 in 10.0 mi North 5.8 mph - N/A   Mostly Cloudy
11:45 PM 57.2 °F 51.8 °F 82% 29.77 in 10.0 mi NW 3.5 mph - N/A   Overcast